Flag for United Kingdom Weather past 2 weeks in Coventry, England, United Kingdom

Now
45 °F

Passing clouds.


Feels Like: 43 °F
Forecast: 41 / 58 °F
Wind: 3 mph from South

Location: Coventry Airport

Current Time: May 7, 2015 at 7:43:51 AM

Latest Report: May 7, 2015 at 7:20 AM


Visibility: N/A

Pressure: 29.95 "Hg

Humidity: 100%

Dew point: 45 °F

Location of CoventryLocation

Historic Weather in Coventry — Graph

°F

Coventry temperature yesterday

Maximum temperature yesterday: 55 °F (at 12:50 PM)
Minimum temperature yesterday: 48 °F (at 12:20 AM)
Average temperature yesterday: 51 °F

Past Weeks' High & Low Weather Summary

 TemperatureHumidityPressure
High66 °F (May 3, 3:20 PM)100% (Apr 23, 6:50 AM)30.54 "Hg (Apr 23, 6:50 AM)
Low37 °F (Apr 27, 6:50 AM)28% (Apr 26, 4:50 PM)29.21 "Hg (May 5, 10:20 AM)
Average52 °F68%29.82 "Hg
* Reported Apr 22 1:20 AM — May 7 1:50 AM, Coventry, Weather by CustomWeather, © 2015

Note: Actual official high and low records may vary slightly from our data, if they occured in-between our weather recording intervals... More about our weather records

Advertising

Coventry weather history for previous 24 hours

 ConditionsComfort  
Time TempWeatherWind HumidityBarometerVisibility
1:50 AM
Thu, May 7
46 °FPassing clouds.9 mph93%29.86 "HgN/A
1:20 AM46 °FClear.9 mph93%29.86 "Hg10 mi
12:50 AM48 °FClear.10 mph87%29.83 "Hg10 mi
12:20 AM48 °FPassing clouds.13 mph87%29.83 "HgN/A
11:50 PM
Wed, May 6
50 °FPassing clouds.10 mph88%29.83 "HgN/A
11:20 PM50 °FPassing clouds.12 mph88%29.80 "HgN/A
10:50 PM50 °FPassing clouds.10 mph82%29.80 "HgN/A
10:20 PM50 °FPassing clouds.12 mph82%29.77 "HgN/A
9:50 PM50 °FPassing clouds.13 mph82%29.77 "HgN/A
9:20 PM50 °FScattered clouds.12 mph82%29.74 "HgN/A
8:50 PM52 °FScattered clouds.14 mph77%29.71 "HgN/A
7:50 PM52 °FScattered showers. Scattered clouds.14 mph88%29.68 "HgN/A
7:20 PM52 °FRain showers. Broken clouds.16 mph82%29.65 "Hg4 mi
6:50 PM52 °FScattered showers. Broken clouds.21 mph88%29.65 "HgN/A
6:20 PM52 °FScattered showers. Broken clouds.22 mph88%29.62 "HgN/A
5:50 PM52 °FScattered showers. Broken clouds.23 mph82%29.59 "HgN/A
5:20 PM52 °FScattered showers. Scattered clouds.23 mph88%29.59 "HgN/A
4:50 PM52 °FScattered showers. Scattered clouds.22 mph88%29.56 "HgN/A
4:20 PM50 °FScattered showers. Scattered clouds.24 mph94%29.53 "HgN/A
3:50 PM52 °FRain showers. Partly sunny.20 mph88%29.53 "Hg4 mi
3:20 PM54 °FSprinkles. Partly sunny.28 mph82%29.50 "HgN/A
2:50 PM55 °FSprinkles. Partly sunny.30 mph72%29.50 "HgN/A
2:20 PM54 °FSprinkles. Partly sunny.24 mph77%29.50 "Hg6 mi
1:50 PM54 °FSprinkles. Partly sunny.23 mph77%29.47 "Hg6 mi
1:20 PM54 °FSprinkles. Broken clouds.26 mph77%29.47 "HgN/A
12:50 PM55 °FScattered showers. Partly sunny.22 mph77%29.45 "HgN/A
12:20 PM54 °FBroken clouds.26 mph82%29.45 "HgN/A
11:50 AM54 °FPartly sunny.23 mph77%29.45 "HgN/A
11:20 AM52 °FSprinkles. Partly sunny.26 mph82%29.45 "HgN/A
10:50 AM52 °FSprinkles. Partly sunny.25 mph77%29.45 "Hg6 mi
9:50 AM52 °FPartly sunny.23 mph72%29.45 "HgN/A
9:20 AM52 °FPartly sunny.21 mph77%29.45 "HgN/A
8:50 AM52 °FScattered clouds.23 mph77%29.45 "HgN/A
8:20 AM50 °FPartly sunny.16 mph82%29.45 "HgN/A
7:50 AM48 °FScattered clouds.18 mph87%29.45 "HgN/A
7:20 AM48 °FScattered clouds.17 mph87%29.45 "HgN/A
Weather by CustomWeather, © 2015

See weather overviewHow to use our weather pages